IRIDIUM 135 (43070 NORAD) Tracking and Keplerian Element Data

This shows tracking and keplerian element data for the satellite.

Feedback or suggestion? Click here.




ElementValue
Catalog43070
NameIRIDIUM 135
Epoch Orbit33814
Epoch Day159.60526669
Epoch Year2024
RAAN271.0728
Inclination86.3961
Eccentricity0.0002636
Argument of Perigee95.8588
Mean Anonmoly264.2909
Mean Motion14.34220295
Decay Rate4.83E-06
L11 43070U 17083A 24159.60526669 .00000483 00000+0 16532-3 0 9998
L22 43070 86.3961 271.0728 0002636 95.8588 264.2909 14.34220295338149



Live tracking and technical data element details for IRIDIUM 135 (NORAD 43070). IRIDIUM 135 can be tracked NOW for your location showing map with azimuth and elevation plus other details from your city location.







IsCatalogInMostPopularTable: catalog: 43070, numindb: 610
Update: records affected: 1



GetName: 43070 IRIDIUM 135

Hit Count: updated at: Fri, 14 Jun 2024 18:50:46 GMT